Regional Weather Roundup
Issued by NWS

Home | Current Version | Previous Version | Graphics & Text | Print | Product List | Glossary On
Versions: 1 2 3 4 5 6 7 8 9 10 11 12 13 14 15 16 17 18 19 20 21 22 23 24 25 26 27 28 29 30 31 32 33 34 35 36 37 38 39 40 41 42 43 44 45 46 47 48 49 50
000
ASUS43 KDMX 060807
RWRIA

WEATHER ROUNDUP FOR IOWA
NATIONAL WEATHER SERVICE DES MOINES IA
300 AM CDT WED MAY 06 2015

NOTE: "FAIR" INDICATES FEW OR NO CLOUDS BELOW 12,000 FEET WITH NO
SIGNIFICANT WEATHER AND/OR OBSTRUCTIONS TO VISIBILITY.

* - THESE STATIONS ARE NOT NWS STATIONS...THUS NOT UNDER NWS
QUALITY CONTROL.  THEY ALSO DO NOT REPORT WEATHER SUCH
AS PRECIPITATION OR FOG.

IAZ001>003-012>014-020>022-031>034-043>046-060900-
   NORTHWEST IOWA

CITY           SKY/WX    TMP DP  RH WIND       PRES   REMARKS
CARROLL *      CLOUDY    63  61  94 SE12      29.99F
CHEROKEE *     CLOUDY    63  63 100 SE12      29.96F FOG
DENISON *      CLOUDY    64  63  94 S16       29.96S
LE MARS *      LGT RAIN  64  61  88 SE12      29.95F
ORANGE CITY *  MOCLDY    61  59  94 SE7       29.96F FOG
SHELDON *      CLOUDY    63  63 100 SE15      29.96F FOG
SIOUX CITY     CLOUDY    66  57  72 SE13      29.93F
SPENCER        CLOUDY    62  32  32 SE15      29.99F FOG
STORM LAKE *   CLOUDY    63  63 100 SE14      29.99F FOG
$$

IAZ055>058-069>071-079>083-090>094-060900-
   SOUTHWEST IOWA

CITY           SKY/WX    TMP DP  RH WIND       PRES   REMARKS
ATLANTIC *     CLOUDY    64  63  94 SW10G22   29.99S
AUDUBON *      CLOUDY    63  57  82 S6        30.00F
CLARINDA *     CLOUDY    63  63 100 CALM      29.98F
COUNCIL BLFS * CLOUDY    63  63 100 SE12      29.95F
CRESTON *      MOCLDY    63  63 100 SE7       30.00F
HARLAN  *      LGT RAIN  63  63 100 S17G26    30.02S
LAMONI         MOCLDY    65  58  78 SE5       30.01F
RED OAK *      CLOUDY    63  61  94 SE3       29.97F
SHENANDOAH *   CLOUDY    63  61  94 SE7       29.96F
$$

IAZ047>049-059>061-072>074-084-060900-
   CENTRAL IOWA

CITY           SKY/WX    TMP DP  RH WIND       PRES   REMARKS
AMES           CLOUDY    63  61  93 SE6       30.03F FOG
ANKENY *       MOCLDY    64  64 100 SE3       30.02F FOG
CHARITON *     CLEAR     64  59  82 SE7       30.03F
DES MOINES     MOCLDY    66  62  87 SE5       30.02F FOG
GRINNELL*      CLOUDY    64  63  94 E13       30.06F FOG
MARSHALLTOWN   CLOUDY    62  61  96 SE14      30.05F FOG
PELLA *        MOCLDY    64  64 100 CALM      30.06S FOG
PERRY *        HVY RAIN  64  61  88 S12G17    30.02S
$$

IAZ004>006-015-016-023>025-035-036-060900-
   NORTH CENTRAL IOWA

CITY           SKY/WX    TMP DP  RH WIND       PRES   REMARKS
ALGONA *       FOG       59  59 100 SE15      30.03F VSB 1/4
CLARION *      FOG       59  59 100 SE16G22   30.03F VSB 1/4
ESTHERVILLE    FOG       57  57 100 SE14      30.02F VSB 1/4
FORT DODGE *   CLOUDY    63  59  88 SE13      30.03F
MASON CITY     FOG       56  55  97 SE13      30.08F VSB 1/4
FOREST CITY *  FOG       54  54 100 SE14      30.06F VSB 1/2
IOWA FALLS *   FOG       59  59 100 E13       30.06F VSB 1/4
$$

IAZ007>011-017>019-026>030-037>042-050>054-066-060900-
   NORTHEAST IOWA

CITY           SKY/WX    TMP DP  RH WIND       PRES   REMARKS
CEDAR RAPIDS   FOG       58  58 100 E13       30.09S VSB 1/2
CHARLES CITY * FOG       55  55 100 SE12      30.10F VSB 1/4
CLINTON *      CLOUDY    55  52  88 E12       30.16
DECORAH *      FOG       54  54 100 VRB6      30.12S VSB 1/2
DUBUQUE        FOG       53  52  96 E8        30.13F VSB 1/4
MONTICELLO *   CLOUDY    55  55 100 E9        30.12F FOG
OELWEIN *      FOG       54  54 100 SE13      30.11F VSB 1/4
WATERLOO       FOG       57  57 100 SE10      30.08F VSB 3/4
$$

IAZ064-065-067-068-078-060900-
   EAST CENTRAL IOWA

CITY           SKY/WX    TMP DP  RH WIND       PRES   REMARKS
DAVENPORT      CLOUDY    55  52  89 E12       30.12F FOG
IOWA CITY      CLOUDY    60  58  92 E8        30.11F FOG
MT. PLEASANT * MOCLDY    64  64 100 E7        30.08F FOG
MUSCATINE *    CLEAR     61  57  88 E6        30.11S FOG
QUAD CITIES    CLOUDY    56  53  90 E12       30.12F FOG
$$

IAZ062-063-075>077-085>089-095>099-060900-
   SOUTHEAST IOWA

CITY           SKY/WX    TMP DP  RH WIND       PRES   REMARKS
BURLINGTON     MOCLDY    66  64  93 E5        30.08F FOG
FAIRFIELD *    FOG       63  61  94 E7        30.07F VSB 1
FORT MADISON * MOCLDY    66  63  88 SE6       30.09F
KEOKUK *       CLEAR     66  61  82 SE6       30.07F
OSKALOOSA *      N/A     63  63 100 SE12      30.06F FOG
CENTERVILLE *  CLEAR     63  61  94 SE7       30.05F
OTTUMWA        MOCLDY    64  63  96 SE9       30.05F FOG
WASHINGTON *   FOG       64 N/A N/A E12       30.08F VSB 1
$$

ABBREVIATIONS USED IN REMARKS
   TC - TEMPERATURES IN CELSIUS
  WCI - WIND CHILL INDEX
   HX - HEAT INDEX
  VSB - VISIBILITY
$$




USA.gov is the U.S. government's official web portal to all federal, state and local government web resources and services.